Cloud_Cover
20 44 68 68 68 68 68 68 68 68 68 68 68 68 68 68 68 68 68 76 76 76 76 76 76 76 76 76 76 56 24 8 20 24 36 80 76 76 76 76 76 76 76 76 76 76 76 76 80 80 80 76 76 76 76 76 76 80 80 80 88 88 88 80 80 80 80 80 80
0 32 68 68 68 68 68 68 68 68 68 68 68 68 68 68 68 68 76 76 76 76 76 76 76 76 76 76 44 20 12 44 64 68 76 76 76 76 76 76 76 76 76 68 68 76 76 76 76 80 80 80 64 68 76 88 88 80 80 80 88 88 88 88 80 80 76 80 80
0 24 64 68 68 68 68 68 68 68 68 68 68 68 68 76 76 76 76 76 76 64 56 64 76 76 68 48 12 0 20 76 80 80 80 76 76 76 76 76 76 76 80 76 76 76 76 76 80 80 80 80 76 76 80 88 88 88 88 88 88 88 88 88 80 80 76 76 80
0 12 36 68 68 68 68 68 68 68 68 68 68 76 76 76 76 76 68 56 68 76 76 76 56 24 0 0 0 0 12 48 76 80 76 76 76 76 76 80 76 76 80 80 80 80 80 76 80 76 76 76 76 80 88 92 88 88 88 92 92 92 88 80 80 80 80 80 68
0 8 24 68 68 68 68 68 68 68 68 68 76 76 76 76 68 64 68 76 44 36 32 20 8 0 0 0 0 0 8 20 68 80 76 76 76 76 76 80 80 80 80 80 80 80 80 80 76 76 76 80 88 88 92 92 92 92 92 92 92 88 88 88 80 80 76 64 68
0 8 20 36 24 44 68 68 68 68 68 68 56 64 68 68 76 76 64 20 0 0 0 0 0 0 0 0 0 8 20 36 68 76 76 80 76 80 80 80 80 80 80 80 80 80 80 80 76 76 80 88 92 88 88 92 88 92 92 88 88 88 88 88 88 88 88 88 68
0 32 68 68 68 68 68 68 68 64 44 20 24 32 24 0 0 0 0 0 0 0 0 0 0 0 0 0 8 8 24 64 76 80 80 92 80 80 80 80 80 80 80 80 80 80 80 80 76 80 88 88 88 80 80 88 92 88 88 92 92 92 92 88 88 80 76 76 76
48 48 48 68 68 68 68 68 68 48 32 44 32 20 0 0 0 0 0 0 0 0 0 0 0 0 0 0 12 20 44 88 80 80 88 80 80 80 80 80 80 80 80 80 80 80 80 80 80 80 80 80 68 76 88 88 92 92 88 92 88 88 88 92 80 76 76 76 80
32 24 32 68 68 68 64 64 44 48 56 68 32 8 0 0 0 0 0 0 0 0 0 0 0 0 0 8 12 24 48 92 80 80 88 80 80 80 80 80 80 80 80 80 88 88 80 80 80 76 76 76 88 88 88 88 88 92 92 92 88 88 80 80 76 76 80 88 88
56 32 24 68 64 32 8 12 12 20 24 36 8 0 0 0 0 0 0 0 0 0 0 0 0 0 0 12 20 32 56 92 80 76 80 80 88 88 88 88 88 88 88 88 88 80 80 80 80 76 64 56 80 88 88 92 92 88 88 88 88 80 80 88 88 92 88 92 88
36 48 68 64 20 8 20 36 36 20 0 0 0 0 0 0 0 0 0 0 0 0 0 0 0 0 0 20 24 32 48 80 76 76 80 80 88 88 88 88 88 88 88 88 88 80 76 88 76 76 80 80 88 88 88 88 88 80 80 88 88 88 92 88 92 92 92 92 92
56 64 56 12 12 20 24 20 0 0 0 0 0 0 0 0 0 0 0 0 0 0 0 0 0 0 8 12 24 36 56 64 80 80 80 80 88 88 88 80 88 88 88 80 80 80 88 88 80 80 80 80 88 88 80 80 80 76 76 88 88 88 92 88 92 92 92 92 92
64 68 48 0 24 20 8 0 0 0 0 0 0 0 0 0 0 0 0 0 0 0 0 0 0 12 20 8 24 48 68 76 76 80 80 80 88 88 88 80 80 88 88 80 76 76 80 80 68 64 68 76 80 80 80 80 80 80 80 80 80 88 88 88 88 92 92 92 92
68 68 48 0 0 0 0 0 0 0 0 0 0 0 0 0 0 0 0 0 0 0 0 0 0 12 24 0 12 36 56 56 64 68 80 80 88 88 88 80 80 88 88 80 80 76 68 68 76 80 88 88 88 88 80 80 76 80 80 88 80 80 88 88 88 88 92 92 88
68 68 48 0 0 0 0 0 0 0 0 0 0 0 0 0 0 0 0 0 0 0 0 0 0 20 24 0 0 8 12 20 32 56 68 68 76 80 88 88 88 88 88 88 88 80 76 80 80 80 80 80 80 80 80 76 80 76 80 88 88 88 88 92 92 92 92 88 80
68 56 36 0 0 0 0 0 0 0 0 0 0 0 0 0 0 0 0 0 0 0 0 0 0 20 24 0 0 0 0 0 0 24 44 44 48 68 80 80 88 88 88 88 88 88 88 80 80 80 80 80 80 80 80 80 80 80 80 88 88 92 92 92 92 92 92 88 88
64 36 8 0 0 0 0 0 0 0 0 0 0 0 0 0 0 0 0 0 0 0 0 0 0 8 20 8 0 0 0 0 0 8 20 36 24 44 64 68 80 88 88 88 88 88 88 88 88 88 88 88 80 80 80 88 88 88 88 92 92 92 92 92 80 88 92 92 88
36 12 0 0 0 0 0 0 0 0 0 0 0 0 0 0 0 0 0 0 0 0 0 0 0 0 8 24 8 0 0 0 0 0 20 36 36 44 44 48 80 92 88 76 80 80 80 88 80 80 80 88 80 80 80 80 80 80 80 80 76 76 68 68 56 56 68 76 80
8 0 0 0 0 0 0 0 0 0 0 0 0 0 0 0 0 0 0 0 0 0 0 0 0 0 8 44 24 8 0 0 0 0 8 24 36 44 48 48 68 80 76 44 56 64 76 76 80 80 80 80 80 76 76 68 68 68 68 68 64 56 56 64 48 44 44 56 56
0 0 0 0 0 0 0 0 0 0 0 0 0 0 0 0 0 0 0 0 0 0 0 0 0 0 8 44 32 12 0 0 0 0 0 8 24 36 44 48 56 68 68 24 36 48 64 64 76 80 80 80 80 76 76 76 76 68 68 68 68 68 68 76 56 48 44 44 48
0 0 0 0 0 0 0 0 0 0 0 0 0 0 0 0 0 0 0 0 0 0 0 0 0 0 0 12 44 36 12 0 0 0 0 0 8 24 36 44 44 56 56 24 32 36 48 64 64 68 76 68 68 76 76 80 76 68 68 76 76 76 76 68 68 56 44 24 32
0 0 0 0 0 0 0 0 0 0 0 0 0 0 0 0 0 0 0 0 0 0 0 0 0 0 0 0 44 56 44 12 0 0 0 0 0 12 32 36 36 44 44 24 24 36 48 56 48 48 48 32 36 36 44 56 68 68 68 76 76 76 68 56 56 56 48 36 24
0 0 0 0 0 0 0 0 0 0 0 0 0 0 0 0 0 0 0 0 0 0 0 0 0 0 0 0 32 56 56 32 20 12 8 8 8 8 12 12 12 12 12 8 20 32 44 48 36 36 32 24 24 24 24 24 48 68 76 68 76 68 64 48 56 56 48 48 36
0 0 0 0 0 0 0 0 0 0 0 0 0 0 0 0 0 0 0 0 0 0 0 0 0 0 0 0 8 36 68 68 56 36 24 20 20 20 20 0 0 0 0 0 0 20 44 56 48 36 32 24 20 24 32 32 32 48 64 76 68 56 36 32 36 48 48 48 48
0 0 0 0 0 0 0 0 0 0 0 0 0 0 0 0 0 0 0 0 0 0 0 0 0 0 0 0 0 8 20 44 48 48 44 32 36 44 56 68 36 12 0 0 0 8 20 48 64 68 56 36 20 12 20 32 36 36 36 44 48 44 32 32 36 44 48 48 48
0 0 0 0 0 0 0 0 0 0 0 0 0 0 0 0 0 0 0 0 0 0 0 0 0 0 0 0 0 0 0 0 32 44 44 44 56 56 64 68 76 76 56 8 0 0 0 8 8 32 56 68 44 24 20 32 36 36 36 24 24 32 36 36 44 48 56 56 56
0 0 0 0 0 0 0 0 0 0 0 0 0 0 0 0 0 0 0 0 0 0 0 0 0 0 0 0 0 0 0 0 0 12 32 44 68 80 80 80 80 80 68 32 8 0 0 0 0 8 32 64 44 36 36 24 32 36 36 36 32 24 24 44 48 56 64 64 48
0 0 0 0 0 0 0 0 0 0 0 0 0 0 0 0 0 0 0 0 0 0 0 0 0 0 0 0 0 0 0 0 0 0 8 24 36 64 80 80 88 88 76 48 20 8 0 0 0 0 0 20 36 44 36 32 32 32 32 36 32 24 20 12 32 36 36 36 44
0 0 0 0 0 0 0 0 0 0 0 0 0 0 0 0 0 0 0 0 0 0 0 0 0 0 0 0 0 0 0 0 0 0 0 0 0 20 48 80 88 88 80 80 36 12 0 0 0 0 0 0 0 8 12 20 12 20 24 24 12 20 24 20 8 12 24 24 44
0 0 0 0 0 0 0 0 0 0 0 0 0 0 0 0 0 0 0 0 0 0 0 0 0 0 0 0 0 0 0 0 0 0 0 0 0 0 8 36 68 88 88 88 36 12 0 0 0 0 0 0 0 0 0 0 8 20 20 20 12 12 8 20 12 8 8 20 20
0 0 0 0 0 0 0 0 0 0 0 0 0 0 0 0 0 0 0 0 0 0 0 0 0 0 0 0 0 0 0 0 0 0 0 0 0 0 0 0 20 56 80 88 88 48 8 0 0 0 0 0 0 0 0 0 0 0 0 0 12 12 8 8 12 8 8 0 12
0 0 0 0 0 0 0 0 0 0 0 0 0 0 0 0 0 0 0 0 0 0 0 0 0 0 0 0 0 0 0 0 0 0 0 0 0 0 0 0 0 8 32 80 80 88 64 0 0 0 0 0 0 0 0 0 0 0 0 0 0 0 0 0 8 12 8 0 0
0 0 0 0 0 0 0 0 0 0 0 0 0 0 0 0 0 0 0 0 0 0 0 0 0 0 0 0 0 0 0 0 0 0 0 0 0 0 0 0 0 0 8 32 68 88 68 20 8 0 0 0 0 0 0 0 0 0 0 0 0 0 0 0 0 0 8 0 0
0 0 0 0 0 0 0 0 0 0 0 0 0 0 0 0 0 0 0 0 0 0 0 0 0 0 0 0 0 0 0 0 0 0 0 0 0 0 0 0 0 0 0 0 48 76 88 80 24 0 0 0 0 0 0 0 0 0 0 0 0 0 0 0 0 0 0 0 0
0 0 0 0 0 0 0 0 0 0 0 0 0 0 0 0 0 0 0 0 0 0 0 0 0 0 0 0 0 0 0 0 0 0 0 0 0 0 0 0 0 0 0 0 8 44 80 80 32 12 0 0 0 0 0 0 0 0 0 0 0 0 0 0 0 0 0 0 0
0 0 0 0 0 0 0 0 0 0 0 0 0 0 0 0 0 0 0 0 0 0 0 0 0 0 0 0 0 0 0 0 0 0 0 0 0 0 0 0 0 0 0 0 0 36 80 80 56 32 8 8 0 0 0 0 0 0 0 0 0 0 0 0 0 0 0 0 0
0 0 0 0 0 0 0 0 0 0 0 0 0 0 0 0 0 0 0 0 0 0 0 0 0 0 0 0 0 0 0 0 0 0 0 0 0 0 0 0 0 0 0 0 0 32 76 80 80 48 20 12 8 8 0 0 0 0 0 0 0 0 0 0 0 0 0 0 0
0 0 0 0 0 0 0 0 0 0 0 0 0 0 0 0 0 0 0 0 0 0 0 0 0 0 0 0 0 0 0 0 0 0 0 0 0 0 0 0 0 0 0 0 0 12 44 80 80 68 44 8 12 12 8 0 0 0 0 0 0 0 0 0 0 0 0 0 0
0 0 0 0 0 0 0 0 0 0 0 0 0 0 0 0 0 0 0 0 0 0 0 0 0 0 0 0 0 0 0 0 0 0 0 0 0 0 0 0 0 0 0 0 0 0 20 76 80 88 68 20 12 12 8 0 0 0 0 0 0 0 0 0 0 0 0 0 0
0 0 0 0 0 0 0 0 0 0 0 0 0 0 0 0 0 0 0 0 0 0 0 0 0 0 0 0 0 0 0 0 0 0 0 0 0 0 0 0 0 0 0 0 0 0 12 64 80 88 80 56 20 8 0 0 0 0 0 0 0 0 0 0 0 0 0 0 0
0 0 0 0 0 0 0 0 0 0 0 0 0 0 0 0 0 0 0 0 0 0 0 0 0 0 0 0 0 0 0 0 8 8 8 0 0 0 0 0 0 0 0 0 0 0 12 56 48 68 88 88 24 0 0 0 0 0 0 0 0 0 0 0 0 0 8 32 12